Weather History for College Station, TX

Change the Weather History Date:

Saturday, October 6, 2012

  Actual Average Record
Temperature  
Mean Temperature 67 °F 74 °F  
Max Temperature 77 °F 84 °F 98 °F (1912)
Min Temperature 56 °F 63 °F 44 °F (1915)
Degree Days  
Heating Degree Days 0 0  
Month to date heating degree days 0 0  
Since 1 July heating degree days 0 2  
Cooling Degree Days 2 9  
Month to date cooling degree days 53 58  
Year to date cooling degree days 3312 2854  
Growing Degree Days 17 (Base 50)    
Moisture  
Dew Point 60 °F    
Average Humidity 73    
Maximum Humidity 90    
Minimum Humidity 57    
Precipitation  
Precipitation 0.00 in 0.15 in 2.66 in (1930)
Month to date precipitation T 0.86  
Year to date precipitation 34.75 29.56  
Sea Level Pressure  
Sea Level Pressure 30.05 in    
Wind  
Wind Speed 10 mph (NNE)    
Max Wind Speed 21 mph    
Max Gust Speed 30 mph    
Visibility 10 miles    
Events      
T = Trace of Precipitation, MM = Missing Value Source: NWS Daily Summary

Daily Weather History Graph

Daily Weather History Graph

Search for Another Location

Airport:

Trip Planner

Search our weather history database for the weather conditions in past years. The results will help you decide how hot, cold, wet, or windy it might be!

Date:

Astronomy

Oct. 06, 2012 Rise Set
Actual Time 7:22 AM CDT 7:03 PM CDT
Civil Twilight 6:58 AM CDT 7:28 PM CDT
Nautical Twilight 6:30 AM CDT 7:55 PM CDT
Astronomical Twilight 6:02 AM CDT 8:23 PM CDT
Moon 11:38 PM CDT (10/6) 12:59 PM CDT (10/6)
Length of Visible Light 12h 29m
Length of Day
11h 41m
Waning Gibbous, 65% of the Moon is Illuminated
Oct 6
Waning Gibbous
Oct 8
Last Quarter
Oct 15
New
Oct 21
First Quarter
Oct 29
Full

Hourly Weather History & Observations

Time (CDT) Temp. Dew Point Humidity Pressure Visibility Wind Dir Wind Speed Gust Speed Precip Events Conditions
12:53 AM 73.0 °F 66.9 °F 81% 29.99 in 10.0 mi South 3.5 mph - N/A   Clear
1:53 AM 72.0 °F 66.9 °F 84% 29.99 in 10.0 mi South 4.6 mph - N/A   Clear
2:53 AM 70.0 °F 66.0 °F 87% 29.99 in 10.0 mi SSE 3.5 mph - N/A   Clear
3:53 AM 70.0 °F 66.9 °F 90% 30.00 in 10.0 mi North 4.6 mph - N/A   Partly Cloudy
4:27 AM 71.6 °F 66.2 °F 83% 30.01 in 10.0 mi Calm Calm - N/A   Overcast
4:53 AM 72.0 °F 68.0 °F 87% 30.00 in 10.0 mi Calm Calm - N/A   Overcast
5:16 AM 71.6 °F 66.2 °F 83% 30.02 in 10.0 mi North 4.6 mph - N/A   Mostly Cloudy
5:24 AM 71.6 °F 66.2 °F 83% 30.03 in 10.0 mi NNE 5.8 mph - N/A   Mostly Cloudy
5:53 AM 69.1 °F 63.0 °F 81% 30.02 in 10.0 mi NNE 11.5 mph - N/A   Overcast
6:21 AM 68.0 °F 62.6 °F 83% 30.03 in 10.0 mi NNE 11.5 mph - N/A   Scattered Clouds
6:53 AM 66.0 °F 60.1 °F 81% 30.03 in 10.0 mi NNE 9.2 mph - N/A   Mostly Cloudy
7:53 AM 64.9 °F 59.0 °F 81% 30.04 in 10.0 mi North 9.2 mph - N/A   Scattered Clouds
8:53 AM 66.2 °F 57.2 °F 73% 30.08 in 10.0 mi North 9.2 mph - N/A   Clear
9:44 AM 68.0 °F 57.2 °F 68% 30.08 in 10.0 mi NE 8.1 mph - N/A   Mostly Cloudy
9:53 AM 69.1 °F 57.9 °F 68% 30.07 in 10.0 mi NE 6.9 mph - N/A   Mostly Cloudy
10:01 AM 69.8 °F 57.2 °F 64% 30.08 in 10.0 mi NNE 9.2 mph - N/A   Mostly Cloudy
10:11 AM 69.8 °F 57.2 °F 64% 30.08 in 10.0 mi NNE 9.2 mph - N/A   Mostly Cloudy
10:31 AM 69.8 °F 59.0 °F 68% 30.08 in 10.0 mi NE 5.8 mph - N/A   Scattered Clouds
10:38 AM 71.6 °F 59.0 °F 64% 30.08 in 10.0 mi North 10.4 mph 27.6 mph N/A   Mostly Cloudy
10:53 AM 72.0 °F 59.0 °F 64% 30.07 in 10.0 mi NNE 8.1 mph - N/A   Scattered Clouds
11:01 AM 71.6 °F 59.0 °F 64% 30.08 in 10.0 mi Variable 6.9 mph 16.1 mph N/A   Mostly Cloudy
11:11 AM 71.6 °F 59.0 °F 64% 30.08 in 10.0 mi NNE 8.1 mph - N/A   Partly Cloudy
11:53 AM 73.9 °F 60.1 °F 62% 30.06 in 10.0 mi NE 6.9 mph - N/A   Mostly Cloudy
12:46 PM 77.0 °F 60.8 °F 57% 30.06 in 10.0 mi Variable 6.9 mph - N/A   Scattered Clouds
12:53 PM 77.0 °F 62.1 °F 60% 30.05 in 10.0 mi North 6.9 mph - N/A   Mostly Cloudy
1:53 PM 75.9 °F 62.1 °F 62% 30.03 in 10.0 mi North 10.4 mph 18.4 mph N/A   Overcast
2:22 PM 73.4 °F 60.8 °F 65% 30.03 in 10.0 mi NNW 10.4 mph - N/A   Overcast
2:53 PM 75.9 °F 61.0 °F 60% 30.01 in 10.0 mi North 10.4 mph - N/A   Scattered Clouds
3:53 PM 75.0 °F 61.0 °F 62% 30.01 in 10.0 mi North 13.8 mph - N/A   Clear
4:53 PM 73.0 °F 60.1 °F 64% 30.01 in 10.0 mi North 11.5 mph - N/A   Partly Cloudy
5:53 PM 68.0 °F 59.0 °F 73% 30.01 in 10.0 mi North 12.7 mph - N/A   Overcast
6:16 PM 68.0 °F 59.0 °F 73% 30.03 in 10.0 mi North 15.0 mph - N/A   Overcast
6:53 PM 66.0 °F 59.0 °F 78% 30.04 in 9.0 mi North 15.0 mph - N/A   Overcast
7:53 PM 64.0 °F 57.9 °F 80% 30.05 in 10.0 mi North 16.1 mph - N/A   Overcast
8:53 PM 63.0 °F 55.9 °F 78% 30.08 in 10.0 mi North 12.7 mph - N/A   Overcast
9:17 PM 62.6 °F 55.4 °F 77% 30.10 in 10.0 mi NNE 13.8 mph - N/A   Overcast
9:53 PM 62.1 °F 55.0 °F 78% 30.09 in 10.0 mi North 9.2 mph 19.6 mph N/A   Overcast
10:53 PM 57.9 °F 53.1 °F 84% 30.12 in 10.0 mi NNE 18.4 mph 25.3 mph N/A   Overcast
11:53 PM 57.0 °F 50.0 °F 77% 30.13 in 10.0 mi NNE 18.4 mph 25.3 mph N/A   Overcast